TimeEST,TemperatureF,Dew PointF,Humidity,Sea Level PressureIn,VisibilityMPH,Wind Direction,Wind SpeedMPH,Gust SpeedMPH,PrecipitationIn,Events,Conditions,WindDirDegrees,DateUTC
12:50 AM,10.4,10.4,100,-9999,0.1,SW,6.9,-,N/A,Fog,Light Freezing Fog,230,2013-02-26 05:50:00
1:47 AM,10.4,10.4,100,-9999,0.1,SW,5.8,-,N/A,Fog,Light Freezing Fog,230,2013-02-26 06:47:00
2:51 AM,10.4,10.4,100,-9999,0.1,SW,8.1,-,N/A,Fog,Light Freezing Fog,230,2013-02-26 07:51:00
3:55 AM,12.2,12.2,100,-9999,0.1,WSW,12.7,-,N/A,Fog,Light Freezing Fog,250,2013-02-26 08:55:00
4:50 AM,12.2,8.6,85,-9999,20.0,WSW,9.2,-,N/A,,Unknown,250,2013-02-26 09:50:00
5:57 AM,12.2,12.2,100,-9999,0.1,West,15.0,-,N/A,Fog,Light Freezing Fog,260,2013-02-26 10:57:00
6:55 AM,12.2,6.8,79,-9999,120.0,West,9.2,-,N/A,,Scattered Clouds,260,2013-02-26 11:55:00
7:54 AM,12.2,8.6,85,-9999,120.0,West,9.2,-,N/A,,Scattered Clouds,270,2013-02-26 12:54:00
8:51 AM,15.8,15.8,100,-9999,0.1,WSW,5.8,-,N/A,Fog,Light Freezing Fog,240,2013-02-26 13:51:00
9:52 AM,17.6,17.6,100,-9999,0.1,WSW,5.8,-,N/A,Fog,Light Freezing Fog,240,2013-02-26 14:52:00
10:51 AM,17.6,17.6,100,-9999,0.1,SSW,6.9,-,N/A,Fog,Light Freezing Fog,210,2013-02-26 15:51:00
11:48 AM,14.0,14.0,100,-9999,0.1,South,8.1,-,N/A,Fog,Light Freezing Fog,190,2013-02-26 16:48:00
12:53 PM,15.8,15.8,100,-9999,0.1,SSW,8.1,-,N/A,Fog,Light Freezing Fog,200,2013-02-26 17:53:00
1:51 PM,14.0,14.0,100,-9999,0.1,South,11.5,-,N/A,Fog,Light Freezing Fog,190,2013-02-26 18:51:00
2:52 PM,14.0,14.0,100,-9999,0.1,SSE,13.8,-,N/A,Fog,Light Freezing Fog,160,2013-02-26 19:52:00
3:51 PM,12.2,12.2,100,-9999,0.0,SE,9.2,-,N/A,Fog,Light Freezing Fog,140,2013-02-26 20:51:00
4:53 PM,12.2,12.2,100,-9999,0.0,SE,9.2,-,N/A,Fog,Light Freezing Fog,140,2013-02-26 21:53:00
5:51 PM,12.2,12.2,100,-9999,0.0,SE,9.2,-,N/A,Fog,Light Freezing Fog,130,2013-02-26 22:51:00
6:51 PM,12.2,12.2,100,-9999,0.0,SE,9.2,-,N/A,Fog,Light Freezing Fog,140,2013-02-26 23:51:00
7:47 PM,12.2,12.2,100,-9999,0.0,SSE,17.3,-,N/A,Fog,Light Freezing Fog,160,2013-02-27 00:47:00
8:55 PM,12.2,12.2,100,-9999,0.0,SSE,16.1,-,N/A,Fog,Light Freezing Fog,160,2013-02-27 01:55:00
9:49 PM,17.6,6.8,63,-9999,100.0,SSE,17.3,-,N/A,,Overcast,160,2013-02-27 02:49:00
10:49 PM,24.8,5.0,43,-9999,100.0,South,19.6,-,N/A,,Overcast,180,2013-02-27 03:49:00
11:59 PM,24.8,6.8,46,-9999,70.0,South,18.4,-,N/A,,Overcast,180,2013-02-27 04:59:00